Weather History for KAMN - March, 2013

Change the Weather History Date:

Monday, March 25, 2013

  Actual Average Record
Temperature  
Mean Temperature 34 °F -  
Max Temperature 39 °F 45 °F 72 °F (1987)
Min Temperature 30 °F 24 °F 2 °F (1974)
Degree Days  
Heating Degree Days 30    
Moisture  
Dew Point 27 °F    
Average Humidity 75    
Maximum Humidity 85    
Minimum Humidity 60    
Precipitation  
Precipitation 0.00 in - - ()
Sea Level Pressure  
Sea Level Pressure 29.76 in    
Wind  
Wind Speed 13 mph (North)    
Max Wind Speed 18 mph    
Max Gust Speed 26 mph    
Visibility 10 miles    
Events      
Averages and records for this station are not official NWS values.
T = Trace of Precipitation, MM = Missing Value Source: NWS Daily Summary

Daily Weather History Graph

Daily Weather History Graph

Search for Another Location

Airport or City:

Trip Planner

Search our weather history database for the weather conditions in past years. The results will help you decide how hot, cold, wet, or windy it might be!

Date:

Astronomy

Mar. 25, 2013 Rise Set
Actual Time 7:32 AM EDT 7:57 PM EDT
Civil Twilight 7:04 AM EDT 8:25 PM EDT
Nautical Twilight 6:30 AM EDT 8:59 PM EDT
Astronomical Twilight 5:55 AM EDT 9:34 PM EDT
Moon 6:26 PM EDT (3/25) 6:17 AM EDT (3/25)
Length of Visible Light 13h 21m
Length of Day
12h 24m
Waxing Gibbous, 96% of the Moon is Illuminated
Mar 25
Waxing Gibbous
Mar 27
Full
Apr 3
Last Quarter
Apr 10
New
Apr 18
First Quarter

Hourly Weather History & Observations

Time (EDT) Temp. Windchill Dew Point Humidity Pressure Visibility Wind Dir Wind Speed Gust Speed Precip Events Conditions
12:14 AM 31.1 °F 21.4 °F 25.2 °F 79% 29.71 in 10.0 mi NE 12.7 mph 19.6 mph N/A   Overcast
12:34 AM 31.3 °F 22.1 °F 25.5 °F 79% 29.72 in 10.0 mi NE 11.5 mph 18.4 mph N/A   Overcast
12:54 AM 31.5 °F 21.4 °F 25.7 °F 79% 29.72 in 10.0 mi NE 13.8 mph 19.6 mph N/A   Scattered Clouds
1:14 AM 31.5 °F 21.4 °F 25.7 °F 79% 29.71 in 10.0 mi NNE 13.8 mph 19.6 mph N/A   Scattered Clouds
1:34 AM 30.7 °F 20.9 °F 25.3 °F 80% 29.71 in 10.0 mi North 12.7 mph 17.3 mph N/A   Mostly Cloudy
1:54 AM 30.2 °F 20.8 °F 25.3 °F 82% 29.71 in 10.0 mi NNE 11.5 mph 17.3 mph N/A   Scattered Clouds
2:14 AM 30.2 °F 20.2 °F 25.7 °F 83% 29.70 in 10.0 mi NNE 12.7 mph 17.3 mph N/A   Scattered Clouds
2:34 AM 30.2 °F 20.8 °F 25.7 °F 83% 29.70 in 10.0 mi North 11.5 mph 16.1 mph N/A   Overcast
2:54 AM 30.2 °F 20.8 °F 25.7 °F 83% 29.70 in 10.0 mi North 11.5 mph - N/A   Overcast
3:14 AM 30.0 °F 20.5 °F 25.7 °F 84% 29.69 in 10.0 mi NNE 11.5 mph - N/A   Overcast
3:35 AM 30.2 °F 20.2 °F 25.7 °F 83% 29.69 in 10.0 mi NNE 12.7 mph - N/A   Overcast
3:55 AM 30.2 °F 20.2 °F 25.7 °F 83% 29.68 in 10.0 mi North 12.7 mph 17.3 mph N/A   Overcast
4:15 AM 30.2 °F 20.2 °F 26.1 °F 85% 29.67 in 10.0 mi North 12.7 mph 20.7 mph N/A   Mostly Cloudy
4:35 AM 30.7 °F 20.4 °F 26.4 °F 84% 29.67 in 10.0 mi NNE 13.8 mph - N/A   Overcast
4:55 AM 30.9 °F 20.7 °F 26.4 °F 83% 29.67 in 10.0 mi NNE 13.8 mph - N/A   Overcast
5:15 AM 30.9 °F 20.7 °F 26.2 °F 83% 29.67 in 10.0 mi NNE 13.8 mph - N/A   Overcast
5:35 AM 30.7 °F 20.4 °F 26.2 °F 83% 29.66 in 10.0 mi NNE 13.8 mph 19.6 mph N/A   Overcast
5:50 AM 30.7 °F 20.4 °F 26.2 °F 83% 29.66 in 10.0 mi NNE 13.8 mph 20.7 mph N/A   Mostly Cloudy
6:11 AM 31.3 °F 20.3 °F 26.6 °F 83% 29.66 in 10.0 mi NNE 16.1 mph 23.0 mph N/A   Overcast
6:31 AM 31.8 °F 21.4 °F 27.0 °F 82% 29.67 in 10.0 mi NNE 15.0 mph 19.6 mph N/A   Overcast
6:51 AM 32.0 °F 21.2 °F 27.3 °F 83% 29.67 in 10.0 mi NNE 16.1 mph 21.9 mph N/A   Overcast
7:11 AM 32.0 °F 21.6 °F 27.5 °F 83% 29.67 in 10.0 mi NNE 15.0 mph 20.7 mph N/A   Overcast
7:31 AM 32.0 °F 22.5 °F 27.5 °F 83% 29.68 in 10.0 mi NNE 12.7 mph - N/A   Overcast
7:51 AM 32.0 °F 22.1 °F 27.5 °F 83% 29.69 in 10.0 mi North 13.8 mph - N/A   Overcast
8:11 AM 32.0 °F 22.1 °F 27.5 °F 83% 29.69 in 10.0 mi North 13.8 mph 18.4 mph N/A   Overcast
8:31 AM 32.0 °F 22.1 °F 27.9 °F 85% 29.69 in 10.0 mi North 13.8 mph 19.6 mph N/A   Overcast
8:51 AM 32.2 °F 21.4 °F 27.9 °F 84% 29.70 in 10.0 mi North 16.1 mph 20.7 mph N/A   Overcast
9:12 AM 32.5 °F 22.7 °F 27.7 °F 82% 29.71 in 10.0 mi NNE 13.8 mph 18.4 mph N/A   Overcast
9:32 AM 32.5 °F 23.2 °F 27.7 °F 82% 29.71 in 10.0 mi North 12.7 mph 21.9 mph N/A   Overcast
9:52 AM 32.9 °F 22.8 °F 27.9 °F 82% 29.71 in 10.0 mi North 15.0 mph 18.4 mph N/A   Overcast
10:12 AM 33.4 °F 23.9 °F 27.5 °F 79% 29.71 in 10.0 mi North 13.8 mph 20.7 mph N/A   Overcast
10:32 AM 33.6 °F 24.6 °F 28.0 °F 80% 29.72 in 10.0 mi NNE 12.7 mph 20.7 mph N/A   Overcast
10:52 AM 33.3 °F 23.7 °F 27.9 °F 81% 29.72 in 10.0 mi NNE 13.8 mph 19.6 mph N/A   Overcast
11:12 AM 34.0 °F 24.6 °F 27.1 °F 76% 29.72 in 10.0 mi NNE 13.8 mph 18.4 mph N/A   Overcast
11:32 AM 34.3 °F 25.9 °F 26.6 °F 73% 29.73 in 10.0 mi NNE 11.5 mph 23.0 mph N/A   Overcast
11:52 AM 34.9 °F 25.7 °F 27.0 °F 73% 29.73 in 10.0 mi NNE 13.8 mph 20.7 mph N/A   Overcast
12:13 PM 34.5 °F 24.8 °F 26.6 °F 73% 29.74 in 10.0 mi North 15.0 mph 21.9 mph N/A   Overcast
12:33 PM 34.3 °F 25.0 °F 27.1 °F 75% 29.75 in 10.0 mi NNE 13.8 mph 21.9 mph N/A   Overcast
12:53 PM 35.1 °F 27.4 °F 28.2 °F 76% 29.75 in 10.0 mi North 10.4 mph 19.6 mph N/A   Overcast
1:13 PM 35.2 °F 25.8 °F 28.8 °F 77% 29.75 in 10.0 mi North 15.0 mph 21.9 mph N/A   Overcast
1:33 PM 35.8 °F 26.9 °F 28.4 °F 75% 29.75 in 10.0 mi North 13.8 mph 23.0 mph N/A   Overcast
1:53 PM 36.5 °F 26.3 °F 27.0 °F 68% 29.75 in 10.0 mi North 18.4 mph 23.0 mph N/A   Overcast
2:13 PM 35.2 °F 24.7 °F 27.5 °F 73% 29.76 in 10.0 mi North 18.4 mph 24.2 mph N/A   Overcast
2:33 PM 36.0 °F 28.5 °F 28.0 °F 73% 29.77 in 10.0 mi North 10.4 mph 23.0 mph N/A   Overcast
2:53 PM 36.5 °F 26.7 °F 28.0 °F 71% 29.77 in 10.0 mi North 17.3 mph 23.0 mph N/A   Overcast
3:14 PM 36.7 °F 28.4 °F 26.6 °F 67% 29.77 in 10.0 mi NNE 12.7 mph 21.9 mph N/A   Overcast
3:34 PM 37.4 °F 29.8 °F 26.4 °F 65% 29.78 in 10.0 mi North 11.5 mph 20.7 mph N/A   Overcast
3:54 PM 37.6 °F 28.1 °F 26.4 °F 64% 29.78 in 10.0 mi North 17.3 mph 21.9 mph N/A   Overcast
4:14 PM 37.6 °F 32.3 °F 26.6 °F 65% 29.78 in 10.0 mi North 6.9 mph 18.4 mph N/A   Overcast
4:34 PM 37.6 °F 29.6 °F 26.2 °F 64% 29.79 in 10.0 mi North 12.7 mph 19.6 mph N/A   Overcast
4:54 PM 37.4 °F 29.8 °F 26.6 °F 65% 29.80 in 10.0 mi North 11.5 mph 24.2 mph N/A   Overcast
5:14 PM 37.9 °F 30.9 °F 25.9 °F 62% 29.80 in 10.0 mi NNE 10.4 mph 26.5 mph N/A   Overcast
5:34 PM 39.0 °F 32.3 °F 26.1 °F 60% 29.81 in 10.0 mi North 10.4 mph 21.9 mph N/A   Overcast
5:54 PM 37.9 °F 30.0 °F 26.2 °F 63% 29.81 in 10.0 mi North 12.7 mph 23.0 mph N/A   Overcast
6:15 PM 38.3 °F 31.9 °F 25.5 °F 60% 29.82 in 10.0 mi North 9.2 mph 16.1 mph N/A   Overcast
6:35 PM 37.9 °F 30.9 °F 25.5 °F 61% 29.83 in 10.0 mi North 10.4 mph 19.6 mph N/A   Overcast
6:55 PM 37.8 °F 30.7 °F 25.7 °F 62% 29.84 in 10.0 mi North 10.4 mph 21.9 mph N/A   Overcast
7:15 PM 37.4 °F 30.3 °F 26.1 °F 64% 29.85 in 10.0 mi North 10.4 mph - N/A   Overcast
7:35 PM 36.7 °F 29.4 °F 26.2 °F 66% 29.86 in 10.0 mi North 10.4 mph 16.1 mph N/A   Overcast
7:55 PM 36.5 °F 28.7 °F 25.9 °F 65% 29.87 in 10.0 mi North 11.5 mph - N/A   Overcast
8:15 PM 36.1 °F 28.7 °F 26.2 °F 67% 29.89 in 10.0 mi North 10.4 mph - N/A   Overcast
8:35 PM 36.1 °F 28.7 °F 26.1 °F 67% 29.89 in 10.0 mi North 10.4 mph - N/A   Overcast
8:55 PM 36.0 °F 29.0 °F 26.1 °F 67% 29.90 in 10.0 mi North 9.2 mph - N/A   Overcast
9:16 PM 35.8 °F 27.8 °F 25.9 °F 67% 29.91 in 10.0 mi North 11.5 mph - N/A   Overcast
9:36 PM 35.6 °F 28.6 °F 26.4 °F 69% 29.92 in 10.0 mi NW 9.2 mph - N/A   Overcast
9:51 PM 35.1 °F 27.9 °F 27.3 °F 73% 29.92 in 10.0 mi NNW 9.2 mph - N/A   Overcast
10:11 PM 34.7 °F 28.1 °F 27.5 °F 75% 29.93 in 10.0 mi NW 8.1 mph - N/A   Overcast
10:31 PM 34.7 °F 27.5 °F 27.5 °F 75% 29.93 in 10.0 mi NW 9.2 mph - N/A   Overcast
10:51 PM 34.3 °F 28.4 °F 27.5 °F 76% 29.94 in 10.0 mi NNW 6.9 mph - N/A   Overcast
11:11 PM 34.3 °F 28.4 °F 27.3 °F 76% 29.94 in 10.0 mi North 6.9 mph - N/A   Overcast
11:31 PM 34.2 °F 27.5 °F 27.3 °F 76% 29.95 in 10.0 mi North 8.1 mph - N/A   Overcast
11:52 PM 34.0 °F 27.2 °F 27.1 °F 76% 29.95 in 10.0 mi NNW 8.1 mph - N/A   Overcast